Lucknow / Amausi, India

4:18 PM IST on January 24, 2017 (GMT +0530)
Lucknow

Weather History for VILK - December, 2013

Change the Weather History Date:

Saturday, December 7, 2013

  Actual Average Record
Temperature  
Mean Temperature 59 °F -  
Max Temperature 77 °F 67 °F 82 °F (2006)
Min Temperature 41 °F 50 °F 41 °F (2013)
Degree Days  
Heating Degree Days 6    
Growing Degree Days 9 (Base 50)    
Moisture  
Dew Point 51 °F    
Average Humidity 69    
Maximum Humidity 93    
Minimum Humidity 31    
Precipitation  
Precipitation 0.00 in - - ()
Sea Level Pressure  
Sea Level Pressure 29.93 in    
Wind  
Wind Speed 2 mph ()    
Max Wind Speed 7 mph    
Max Gust Speed -    
Visibility 0.8 miles    
Events Fog    
Averages and records for this station are not official NWS values.
T = Trace of Precipitation, MM = Missing Value Source: Averaged Metar Reports

Daily Weather History Graph

Daily Weather History Graph

Search for Another Location

Airport or City:

Trip Planner

Search our weather history database for the weather conditions in past years. The results will help you decide how hot, cold, wet, or windy it might be!

Date:

Astronomy

Dec. 07, 2013 Rise Set
Actual Time 6:42 AM IST 5:13 PM IST
Civil Twilight 6:16 AM IST 5:38 PM IST
Nautical Twilight 5:48 AM IST 6:07 PM IST
Astronomical Twilight 5:19 AM IST 6:35 PM IST
Moon 10:24 AM IST (12/7) 10:04 PM IST (12/7)
Length of Visible Light 11h 22m
Length of Day
10h 31m
Waxing Crescent, 24% of the Moon is Illuminated
Dec 7
Waxing Crescent
Dec 9
First Quarter
Dec 17
Full
Dec 25
Last Quarter
Jan 1
New

Hourly Weather History & Observations

Time (IST) Temp. Dew Point Humidity Pressure Visibility Wind Dir Wind Speed Gust Speed Precip Events Conditions
12:00 AM 55.4 °F 48.2 °F 77% 29.92 in 1.2 mi Variable 2.3 mph - N/A   Mist
1:00 AM 53.6 °F 48.2 °F 82% 29.92 in 1.2 mi Variable 2.3 mph - N/A   Mist
2:00 AM 53.6 °F 48.2 °F 82% 29.92 in 1.2 mi Variable 2.3 mph - N/A   Mist
2:30 AM 53 °F 48 °F 78% 29.96 in 1 mi 2.3 mph - -   Mist
3:00 AM 53.6 °F 48.2 °F 82% 29.92 in 1.2 mi Variable 2.3 mph - N/A   Mist
4:00 AM 51.8 °F 46.4 °F 82% 29.92 in 0.9 mi Calm Calm - N/A   Mist
5:30 AM 48 °F 45 °F 84% 29.95 in 0 mi Calm Calm - - Fog Patches of Fog
5:30 AM 48.2 °F 44.6 °F 87% 29.92 in 0.5 mi Calm Calm - N/A Fog Shallow Fog
6:00 AM 48.2 °F 44.6 °F 87% 29.92 in 0.4 mi Calm Calm - N/A Fog Shallow Fog
6:30 AM 46.4 °F 44.6 °F 93% 29.92 in 0.3 mi Calm Calm - N/A Fog Shallow Fog
7:00 AM 46.4 °F 44.6 °F 93% 29.95 in 0.3 mi Calm Calm - N/A Fog Shallow Fog
7:30 AM 46.4 °F 44.6 °F 93% 29.95 in 0.4 mi Calm Calm - N/A Fog Shallow Fog
8:30 AM 55 °F 49 °F 74% 30.01 in 0 mi 2.3 mph - - Fog Partial Fog
9:00 AM 59.0 °F 48.2 °F 67% 30.01 in 0.6 mi WSW 3.5 mph - N/A   Smoke
10:00 AM 62.6 °F 51.8 °F 68% 30.01 in 0.7 mi WSW 3.5 mph - N/A   Smoke
11:00 AM 84.2 °F 51.8 °F 33% 29.98 in 1.2 mi WSW 2.3 mph - N/A   Haze
11:30 AM 72 °F 52 °F 39% 29.99 in 1 mi SSW 3.5 mph - -   Haze
12:00 PM 73.4 °F 51.8 °F 47% 29.95 in 1.2 mi WNW 6.9 mph - N/A   Haze
12:30 PM 75.2 °F 53.6 °F 47% 29.95 in 1.2 mi NNW 6.9 mph - N/A   Haze
1:00 PM 75.2 °F 51.8 °F 44% 29.92 in 1.2 mi NW 5.8 mph - N/A   Haze
1:30 PM 75.2 °F 53.6 °F 47% 29.92 in 1.2 mi WNW 6.9 mph - N/A   Haze
2:00 PM 77.0 °F 51.8 °F 41% 29.92 in 1.2 mi West 5.8 mph - N/A   Haze
2:30 PM 77 °F 52 °F 31% 29.92 in 1 mi West 4.6 mph - -   Haze
2:30 PM 77.0 °F 51.8 °F 41% 29.92 in 1.2 mi West 4.6 mph - N/A   Haze
3:00 PM 77.0 °F 51.8 °F 41% 29.89 in 1.2 mi West 4.6 mph - N/A   Haze
3:30 PM 75.2 °F 55.4 °F 50% 29.89 in 1.2 mi West 3.5 mph - N/A   Haze
4:00 PM 75.2 °F 55.4 °F 50% 29.89 in 1.2 mi NW 3.5 mph - N/A   Haze
4:30 PM 73.4 °F 55.4 °F 53% 29.89 in 1.2 mi SW 3.5 mph - N/A   Haze
5:30 PM 67 °F 58 °F 66% 29.92 in 1 mi 1.2 mph - -   Mist
5:30 PM 66.2 °F 59.0 °F 78% 29.89 in 0.9 mi Variable 2.3 mph - N/A   Haze
6:00 PM 66.2 °F 59.0 °F 78% 29.92 in 0.9 mi Calm Calm - N/A   Mist
6:30 PM 62.6 °F 55.4 °F 77% 29.92 in 0.6 mi Calm Calm - N/A   Mist
7:30 PM 59.0 °F 55.4 °F 88% 29.92 in 0.5 mi Calm Calm - N/A Fog Fog
8:00 PM - - N/A% - 0.5 mi Calm Calm - N/A Fog Fog
8:30 PM 58 °F 54 °F 83% 29.95 in 0 mi Calm Calm - - Fog Partial Fog
8:30 PM 59.0 °F 53.6 °F 82% 29.92 in 0.5 mi Calm Calm - N/A Fog Fog
9:00 PM 57.2 °F 53.6 °F 88% 29.95 in 0.5 mi Calm Calm - N/A Fog Fog
10:00 PM 57.2 °F 53.6 °F 88% 29.95 in 0.5 mi Calm Calm - N/A Fog Fog
11:30 PM 54 °F 51 °F 86%  in 0 mi Calm Calm - - Fog Partial Fog